Weather History for Perry, IA

Change the Weather History Date:

Tuesday, February 12, 2013

  Actual Average Record
Temperature  
Mean Temperature 32 °F -  
Max Temperature 44 °F 30 °F 61 °F (1977)
Min Temperature 20 °F 10 °F -21 °F (1988)
Degree Days  
Heating Degree Days 33    
Moisture  
Dew Point 25 °F    
Average Humidity 77    
Maximum Humidity 93    
Minimum Humidity 47    
Precipitation  
Precipitation 0.00 in - - ()
Sea Level Pressure  
Sea Level Pressure 30.00 in    
Wind  
Wind Speed 10 mph (WSW)    
Max Wind Speed 20 mph    
Max Gust Speed 22 mph    
Visibility 10 miles    
Events      
Averages and records for this station are not official NWS values.
T = Trace of Precipitation, MM = Missing Value Source: NWS Daily Summary

Daily Weather History Graph

Daily Weather History Graph

Search for Another Location

Airport:

Trip Planner

Search our weather history database for the weather conditions in past years. The results will help you decide how hot, cold, wet, or windy it might be!

Date:

Astronomy

Feb. 12, 2013 Rise Set
Actual Time 7:15 AM CST 5:46 PM CST
Civil Twilight 6:47 AM CST 6:15 PM CST
Nautical Twilight 6:14 AM CST 6:47 PM CST
Astronomical Twilight 5:42 AM CST 7:20 PM CST
Moon 8:10 AM CST (2/12) 8:51 PM CST (2/12)
Length of Visible Light 11h 27m
Length of Day
10h 30m
Waxing Crescent, 7% of the Moon is Illuminated
Feb 12
Waxing Crescent
Feb 17
First Quarter
Feb 25
Full
Mar 4
Last Quarter
Mar 11
New

Hourly Weather History & Observations

Time (CST) Temp. Windchill Dew Point Humidity Pressure Visibility Wind Dir Wind Speed Gust Speed Precip Events Conditions
12:15 AM 27.5 °F 18.6 °F 23.0 °F 83% 30.13 in 10.0 mi NW 9.2 mph - N/A   Overcast
12:35 AM 27.5 °F 18.6 °F 22.3 °F 81% 30.13 in 10.0 mi NW 9.2 mph - N/A   Overcast
12:55 AM 27.3 °F 17.7 °F 22.1 °F 81% 30.14 in 10.0 mi West 10.4 mph - N/A   Overcast
1:15 AM 27.3 °F 17.7 °F 22.5 °F 82% 30.14 in 10.0 mi West 10.4 mph - N/A   Overcast
1:35 AM 27.3 °F 16.6 °F 22.6 °F 83% 30.14 in 10.0 mi WNW 12.7 mph - N/A   Overcast
1:55 AM 27.3 °F 16.6 °F 22.3 °F 81% 30.13 in 10.0 mi West 12.7 mph - N/A   Overcast
2:15 AM 27.1 °F 17.5 °F 21.9 °F 81% 30.13 in 10.0 mi WNW 10.4 mph - N/A   Overcast
2:35 AM 27.0 °F 17.3 °F 21.2 °F 79% 30.13 in 10.0 mi WNW 10.4 mph - N/A   Overcast
2:55 AM 27.1 °F 18.9 °F 21.9 °F 81% 30.13 in 10.0 mi West 8.1 mph - N/A   Overcast
3:15 AM 27.0 °F 18.7 °F 22.1 °F 82% 30.13 in 10.0 mi West 8.1 mph - N/A   Overcast
3:35 AM 25.7 °F 19.0 °F 21.7 °F 85% 30.12 in 10.0 mi West 5.8 mph - N/A   Mostly Cloudy
3:55 AM 23.5 °F 16.4 °F 20.7 °F 89% 30.11 in 10.0 mi West 5.8 mph - N/A   Scattered Clouds
4:15 AM 22.5 °F 16.3 °F 20.1 °F 91% 30.10 in 7.0 mi WSW 4.6 mph - N/A   Clear
4:35 AM 22.8 °F - 20.5 °F 91% 30.08 in 7.0 mi Calm Calm - N/A   Clear
4:55 AM 21.6 °F 16.8 °F 19.6 °F 92% 30.08 in 7.0 mi SSW 3.5 mph - N/A   Clear
5:15 AM 22.5 °F 17.8 °F 20.5 °F 92% 30.07 in 7.0 mi SW 3.5 mph - N/A   Clear
5:35 AM 20.3 °F 11.5 °F 18.3 °F 92% 30.08 in 7.0 mi SSW 6.9 mph - N/A   Clear
6:15 AM 21.2 °F 11.7 °F 19.4 °F 93% 30.09 in 7.0 mi SSW 8.1 mph - N/A   Clear
6:35 AM 21.0 °F 12.4 °F 19.0 °F 92% 30.09 in 10.0 mi SW 6.9 mph - N/A   Clear
6:55 AM 20.8 °F 12.1 °F 19.0 °F 93% 30.09 in 10.0 mi SSW 6.9 mph - N/A   Clear
7:15 AM 20.7 °F 11.0 °F 18.9 °F 93% 30.09 in 10.0 mi SSW 8.1 mph - N/A   Clear
7:35 AM 21.2 °F 11.7 °F 19.4 °F 93% 30.08 in 10.0 mi SSW 8.1 mph - N/A   Clear
7:55 AM 22.3 °F 13.0 °F 20.3 °F 92% 30.07 in 10.0 mi SSW 8.1 mph - N/A   Clear
8:15 AM 23.5 °F 14.5 °F 21.2 °F 91% 30.06 in 10.0 mi SSW 8.1 mph - N/A   Clear
8:35 AM 25.2 °F 18.3 °F 22.3 °F 89% 30.06 in 10.0 mi SSW 5.8 mph - N/A   Clear
8:55 AM 26.6 °F 20.0 °F 22.8 °F 86% 30.05 in 10.0 mi SW 5.8 mph - N/A   Clear
9:15 AM 28.0 °F 17.5 °F 23.5 °F 83% 30.05 in 10.0 mi SW 12.7 mph - N/A   Clear
9:35 AM 29.7 °F 20.7 °F 24.1 °F 80% 30.04 in 10.0 mi SW 10.4 mph - N/A   Clear
9:55 AM 31.6 °F 20.7 °F 25.0 °F 76% 30.06 in 10.0 mi SSW 16.1 mph - N/A   Clear
10:15 AM 32.0 °F 21.2 °F 24.8 °F 75% 30.05 in 10.0 mi SW 16.1 mph - N/A   Clear
10:35 AM 33.1 °F 23.0 °F 25.7 °F 74% 30.05 in 10.0 mi SSW 15.0 mph - N/A   Clear
10:55 AM 34.5 °F 24.1 °F 25.7 °F 70% 30.03 in 10.0 mi SW 17.3 mph - N/A   Clear
11:15 AM 36.1 °F 26.5 °F 26.2 °F 67% 30.03 in 10.0 mi SW 16.1 mph - N/A   Clear
11:35 AM 38.1 °F 29.5 °F 27.0 °F 64% 30.02 in 10.0 mi SW 15.0 mph - N/A   Clear
11:55 AM 39.2 °F 30.5 °F 26.6 °F 61% 30.01 in 10.0 mi SW 16.1 mph - N/A   Clear
12:15 PM 40.1 °F 31.6 °F 27.9 °F 62% 30.00 in 10.0 mi SW 16.1 mph - N/A   Clear
12:35 PM 40.6 °F 32.7 °F 27.9 °F 60% 29.99 in 10.0 mi SW 15.0 mph - N/A   Clear
12:55 PM 41.9 °F 33.7 °F 27.5 °F 57% 29.97 in 10.0 mi SW 17.3 mph - N/A   Clear
1:15 PM 42.4 °F 35.0 °F 27.5 °F 56% 29.96 in 10.0 mi WSW 15.0 mph 20.7 mph N/A   Clear
1:35 PM 43.2 °F 34.7 °F 27.7 °F 54% 29.94 in 10.0 mi West 19.6 mph - N/A   Clear
1:55 PM 43.7 °F 35.7 °F 28.4 °F 55% 29.94 in 10.0 mi West 18.4 mph 21.9 mph N/A   Clear
2:15 PM 43.9 °F 36.8 °F 28.4 °F 55% 29.93 in 10.0 mi West 15.0 mph - N/A   Clear
2:35 PM 44.2 °F 37.3 °F 26.8 °F 50% 29.92 in 10.0 mi West 15.0 mph - N/A   Clear
2:55 PM 44.4 °F 36.9 °F 25.2 °F 47% 29.92 in 10.0 mi WSW 17.3 mph - N/A   Clear
3:15 PM 44.6 °F 37.4 °F 27.0 °F 50% 29.92 in 10.0 mi WSW 16.1 mph 19.6 mph N/A   Clear
3:35 PM 44.2 °F 37.3 °F 26.4 °F 50% 29.92 in 10.0 mi West 15.0 mph - N/A   Clear
3:55 PM 44.2 °F 38.4 °F 26.8 °F 50% 29.91 in 10.0 mi West 11.5 mph - N/A   Clear
4:15 PM 44.1 °F 38.1 °F 26.6 °F 50% 29.91 in 10.0 mi West 11.5 mph - N/A   Clear
4:35 PM 43.7 °F 38.6 °F 28.0 °F 54% 29.91 in 10.0 mi West 9.2 mph - N/A   Clear
4:55 PM 42.8 °F 38.0 °F 27.9 °F 56% 29.90 in 10.0 mi WSW 8.1 mph - N/A   Clear
5:15 PM 40.3 °F 34.9 °F 29.1 °F 64% 29.89 in 10.0 mi WSW 8.1 mph - N/A   Clear
5:35 PM 38.1 °F 32.9 °F 28.4 °F 68% 29.89 in 10.0 mi WSW 6.9 mph - N/A   Clear
5:55 PM 35.2 °F 28.8 °F 28.8 °F 77% 29.89 in 10.0 mi WSW 8.1 mph - N/A   Clear
6:15 PM 34.3 °F 27.7 °F 28.0 °F 78% 29.89 in 10.0 mi SW 8.1 mph - N/A   Clear
6:35 PM 33.3 °F 26.4 °F 28.8 °F 84% 29.89 in 10.0 mi SSW 8.1 mph - N/A   Clear
6:55 PM 32.0 °F 24.2 °F 28.4 °F 87% 29.89 in 10.0 mi SSW 9.2 mph - N/A   Clear
7:15 PM 33.8 °F 26.4 °F 28.8 °F 82% 29.88 in 10.0 mi SW 9.2 mph - N/A   Clear
7:35 PM 33.4 °F 25.9 °F 28.4 °F 82% 29.88 in 10.0 mi SW 9.2 mph - N/A   Clear
8:15 PM 32.4 °F 24.6 °F 28.4 °F 85% 29.88 in 10.0 mi SW 9.2 mph - N/A   Clear
8:35 PM 32.0 °F 24.8 °F 28.6 °F 87% 29.88 in 10.0 mi West 8.1 mph - N/A   Clear
8:55 PM 31.6 °F 28.3 °F 28.4 °F 88% 29.89 in 10.0 mi NW 3.5 mph - N/A   Clear
9:15 PM 30.7 °F 24.9 °F 28.0 °F 90% 29.89 in 10.0 mi WNW 5.8 mph - N/A   Clear
9:35 PM 30.0 °F 23.2 °F 27.7 °F 91% 29.89 in 10.0 mi West 6.9 mph - N/A   Clear
9:55 PM 29.8 °F 23.0 °F 27.3 °F 90% 29.89 in 10.0 mi West 6.9 mph - N/A   Clear
10:15 PM 31.1 °F 24.5 °F 26.6 °F 83% 29.89 in 10.0 mi WNW 6.9 mph - N/A   Clear
10:35 PM 30.4 °F 24.5 °F 26.6 °F 86% 29.88 in 10.0 mi WNW 5.8 mph - N/A   Clear
10:55 PM 29.3 °F 22.3 °F 26.4 °F 89% 29.88 in 10.0 mi West 6.9 mph - N/A   Clear
11:15 PM 29.8 °F 23.0 °F 26.6 °F 88% 29.87 in 10.0 mi West 6.9 mph - N/A   Clear
11:35 PM 29.3 °F 23.2 °F 26.6 °F 90% 29.87 in 10.0 mi West 5.8 mph - N/A   Clear
11:55 PM 28.0 °F 21.7 °F 26.1 °F 92% 29.87 in 10.0 mi West 5.8 mph - N/A   Clear